Weather Service Report


310 
ASUS45 KREV 230810
RWRNV 
NEVADA REGIONAL WEATHER ROUNDUP
NATIONAL WEATHER SERVICE RENO NV
100 AM PDT THU SEP 23 2021

NOTE: "FAIR" INDICATES FEW OR NO CLOUDS BELOW 12,000 FEET WITH NO
SIGNIFICANT WEATHER AND/OR OBSTRUCTIONS TO VISIBILITY.

NVZ001-003-004-230900-
WESTERN NEVADA
  
CITY           SKY/WX    TMP DP  RH WIND       PRES   REMARKS
RENO           CLEAR     60  38  43 S5        30.21R                  
CARSON CITY    FAIR      57  34  41 CALM      30.22S                  
MINDEN         CLOUDY    48  34  57 CALM      30.21F                  
SLIDE MTN        N/A     46  32  57 W8          N/A                   
PYRAMID LAKE     N/A     68 N/A N/A W5          N/A                   
FALLON         CLEAR     58  35  42 N5        30.16S                  
LOVELOCK       CLEAR     60  30  32 NW6       30.17R                  
HAWTHORNE      CLEAR     66  39  37 NW6       30.19R                  
$$

NVZ002-CAZ072-073-230900-
NORTHERN AND CENTRAL SIERRA
  
CITY           SKY/WX    TMP DP  RH WIND       PRES   REMARKS
S. LAKE TAHOE  CLEAR     44  33  65 CALM      30.30F                  
TRUCKEE        CLEAR     43  34  70 SW3       30.31S                  
BLUE CANYON    CLEAR     63  37  38 NE3       30.25F                  
MAMMOTH LAKES  FAIR      39  21  48 N3        30.34S                  
BRIDGEPORT       N/A     43  30  61 S6          N/A                   
$$

NVZ030-031-036-230900-
NORTHERN NEVADA
  
CITY           SKY/WX    TMP DP  RH WIND       PRES   REMARKS
ELKO           CLEAR     54  25  32 E5        30.18R                  
WINNEMUCCA     CLEAR     62  32  32 N12G18    30.19R                  
BATTLE MOUNTAI SUNNY     59  30  33 NE3       30.20R                  
WENDOVER       PTCLDY    56  25  30 NW5       30.10S                  
$$

NVZ035-037-230900-
CENTRAL NEVADA
  
CITY           SKY/WX    TMP DP  RH WIND       PRES   REMARKS
ELY            MOCLDY    45  11  25 S14       30.23F                  
EUREKA           N/A     49  21  33 S7        30.21F                  
$$

NVZ013-014-230900-
SOUTH CENTRAL NEVADA
  
CITY           SKY/WX    TMP DP  RH WIND       PRES   REMARKS
TONOPAH        CLEAR     59  14  17 NW7       30.20S                  
$$

NVZ017-020-022-230900-
SOUTHERN NEVADA
  
CITY           SKY/WX    TMP DP  RH WIND       PRES   REMARKS
LAS VEGAS      CLEAR     79  33  19 S5        29.94F                  
N. LAS VEGAS   CLEAR     76  34  21 NW3       29.92F                  
NELLIS AFB     CLEAR     75  24  15 NE3       29.91F                  
HENDERSON      CLEAR     79  34  19 S7        29.98F                  
MERCURY        PTCLDY    67  28  23 E5        30.02S                  
$$
  

Return to Home page


Western Regional Climate Center, wrcc@dri.edu